Location: Bazugues
(43.4465°N, 0.3432°E)
Time: 17:11:01
(UTC+00:00)

Cosmos 2056 Rocket - Visible Passes

Search period start: 11 April 2026 00:00
Search period end: 21 April 2026 00:00
Orbit: 737 x 796 km, 74.0° (Epoch: 11 April)

Date Brightness Start Highest point End Pass type
(mag) Time Alt. Az. Time Alt. Az. Time Alt. Az.
11 Apr 4.9 01:44:59 34° NNW 01:44:59 34° NNW 01:48:22 10° N visible
12 Apr 5.1 01:08:03 33° NNE 01:08:03 33° NNE 01:11:01 10° NNE visible
12 Apr 5.7 02:48:16 13° NW 02:48:35 13° NW 02:51:01 10° NNW visible
13 Apr 5.4 00:31:06 26° NNE 00:31:06 26° NNE 00:33:29 10° NNE visible
13 Apr 5.4 02:11:19 20° NW 02:11:19 20° NW 02:14:36 10° N visible
13 Apr 5.8 23:54:08 19° NE 23:54:08 19° NE 23:55:44 10° NE visible
14 Apr 5.2 01:34:21 27° NNW 01:34:21 27° NNW 01:37:39 10° N visible
14 Apr 6.1 23:17:08 12° NE 23:17:08 12° NE 23:17:39 10° NE visible
15 Apr 5.1 00:57:21 32° N 00:57:21 32° N 01:00:28 10° N visible
16 Apr 5.2 00:20:19 31° NNE 00:20:19 31° NNE 00:23:06 10° NNE visible
16 Apr 5.8 02:00:32 14° NW 02:00:36 14° NW 02:03:17 10° NNW visible
16 Apr 5.4 23:43:17 25° NE 23:43:17 25° NE 23:45:33 10° NNE visible
17 Apr 5.5 01:23:29 20° NW 01:23:29 20° NW 01:26:46 10° N visible
17 Apr 5.7 23:06:12 18° NE 23:06:12 18° NE 23:07:46 10° NE visible
18 Apr 5.2 00:46:25 28° NNW 00:46:25 28° NNW 00:49:47 10° N visible
18 Apr 6.0 22:29:06 12° NE 22:29:06 12° NE 22:29:37 10° NE visible
19 Apr 5.0 00:09:19 34° N 00:09:19 34° N 00:12:34 10° NNE visible
19 Apr 5.0 23:32:11 34° NNE 23:32:11 34° NNE 23:35:11 10° NNE visible
20 Apr 5.8 01:12:23 14° NW 01:12:37 14° NW 01:15:31 10° NNW visible
20 Apr 5.1 22:55:00 28° NE 22:55:00 28° NE 22:57:36 10° NNE visible
